Regional Weather Roundup
Issued by NWS

Home | Current Version | Previous Version | Graphics & Text | Print | Product List | Glossary On
Versions: 1 2 3 4 5 6 7 8 9 10 11 12 13 14 15 16 17 18 19 20 21 22 23 24 25 26 27 28 29 30 31 32 33 34 35 36 37 38 39 40 41 42 43 44 45 46 47 48 49 50
000
ASUS45 KSLC 201310
RWRUT

UTAH REGIONAL WEATHER ROUNDUP
NATIONAL WEATHER SERVICE SALT LAKE CITY UT
600 AM MST SAT DEC 20 2014

UTZ001>011-023>025-201400-

NORTHERN UTAH

CITY           SKY/WX    TMP DP  RH WIND       PRES   REMARKS
BRIGHAM CITY   CLOUDY    38  35  88 CALM      30.12R
HILL AFB       CLOUDY    35  35  99 SE8       30.10S WCI  28
LOGAN          CLOUDY    35  33  92 CALM      30.10S FOG
OGDEN          CLOUDY    36  35  96 S8        30.10F WCI  30
PROVO AIRPORT  CLOUDY    36  30  80 SE6       30.12F WCI  31
SALT LAKE CITY MOCLDY    38  34  85 CALM      30.10F
VERNAL         MOCLDY    22  20  92 W5        30.18R WCI  16
WENDOVER       MOCLDY    27  21  80 SE5       30.10F WCI  21
HEBER CITY     FLURRIES  32  30  93 CALM      30.10F
WEST JORDAN    MOCLDY    37  36  93 S9        30.10F WCI  31

$$

UTZ012>022-026-027-201400-

SOUTHERN/CENTRAL UTAH

CITY           SKY/WX    TMP DP  RH WIND       PRES   REMARKS
BLANDING       PTCLDY    26  24  93 N5        30.23R WCI  20
BRYCE CANYON   CLEAR     13  10  88 SW7       30.15R WCI   3
CEDAR CITY     CLEAR     24  20  84 S6        30.13F WCI  17
DELTA          PTCLDY    32  29  88 S6        30.12S WCI  26
MILFORD        CLEAR     31  25  78 SW16      30.11F WCI  20
MOAB/CYNLANDS  CLOUDY    32  30  92 W3        30.17R
PRICE          CLOUDY    27  22  81 W5        30.15F WCI  22
ST GEORGE      PTSUNNY   34  28  80 CALM      30.19F
KANAB          CLEAR     28  27  93 NE5       30.22R WCI  23

$$

REGIONAL REPORTS     COLORADO/ARIZONA

CITY           SKY/WX    TMP DP  RH WIND       PRES   REMARKS
CRAIG, CO      CLOUDY    25  19  78 E7        30.14R WCI  17
GRAND JUNCTION CLOUDY    28  25  88 E5        30.18S WCI  23
RIFLE          MOCLDY    25  20  81 SW5       30.19F WCI  19
MONTROSE       MOCLDY    24  19  81 S7        30.20F WCI  16
CORTEZ         CLEAR     23  20  88 NE5       30.16F WCI  17
PAGE, AZ       CLEAR     33  27  78 CALM      30.19R
GRAND CANYON   CLEAR     20  17  88 CALM      30.17R
KINGMAN        CLEAR     29  27  92 CALM      30.15R
FLAGSTAFF      CLEAR     20  17  88 CALM      30.15S

$$

REGIONAL REPORTS    NEVADA/IDAHO/WYOMING

CITY           SKY/WX    TMP DP  RH WIND       PRES   REMARKS
LAS VEGAS, NV  PTCLDY    42  35  76 SW7       30.13R
ELY            CLOUDY    26  25  96 S7        30.11F WCI  18
ELKO           FLURRIES  33  31  92 E3        30.07S
POCATELLO, ID  CLOUDY    36  33  89 SW7       30.06S WCI  30
BURLEY         CLOUDY    37  32  82 S7        30.05F WCI  32
EVANSTON, WY   CLOUDY    29  27  92 SW9       30.06F WCI  20
ROCK SPRINGS   CLOUDY    28  22  78 SW13      30.06S WCI  17
KEMMERER       CLOUDY    28  27  93 SW5       30.05F WCI  23

$$


USA.gov is the U.S. government's official web portal to all federal, state and local government web resources and services.